ONEWEB-0049, 45154

Orbit data source: Space-Track

ONEWEB-0049, 45154 is a payload satellite owned by One Web (UK) in LEO that was launched on Thu, 06 Feb 2020 UTC via a SOYUZ-2-1B launch vehicle from the Tyuratam Missile And Space Complex (TTMTR). Payload-class satellites include a variety of spacecraft equipped with specific instruments for various scientific and technological missions. These include communications satellites like Starlink; space stations such as the ISS; scientific satellites like the Hubble; Earth observation satellites from companies like Planet Labs, Umbra, and HawkEye 360; GPS; miniature CubeSats for education and research; and military/defense satellites.

Loading next visibility...
Identifier
45154, 2020-008Z
Orbit
LEO
Last TLE update
20 hours ago
Origin
Manufacturer
One Web
Mission
Operational Commercial Communications
Bus & Motor
ARROW, Unknown motor
Mass
148 kg wet, ~140 kg dry
Launch date (UTC)
2020-02-06 (5 years ago)
Launch vehicle
SOYUZ-2-1B
Launch site
Tyuratam Missile And Space Complex (TTMTR)
Object type
Payload
Rocket body
Debris
Shape & HBR
Trap Box + 2 Pan, 5 m
Radar Cross Section
2.957 m², Large (>1 m²)

Expand to show TLE details & history

TLE from 20 hours ago
0 ONEWEB-0049
1 45154U 20008Z   25128.52822608 -.00000617  00000-0 -18038-2 0  9998
2 45154  87.8798 116.9658 0002530  87.2178 272.9238 13.10370527255810
Epoch: 2025-05-08T12:40Z
Definitive object data (Epoch: 2025-05-08T12:40:38.733Z)
Latitude
-0.0001°
Longitude
60.20698°
Altitude
1,224.516 km
Speed
7.242 km/s
True Right ascension
07h 47m 51s
True Declination
0° 00' 00"
Sunlit
Object was in daylight at TLE epoch
Visualization TLE readout
Latitude
-28.51511°
Longitude
58.89407°
Altitude
1,233.127 km
Speed
7.237 km/s
Apparent Right ascension
06h 30m 35s
Apparent Declination
-35° 25' 36"
Sunlit
Object is in daylight
Visualization observer readout
Local Sidereal Time
16:50:40
Azimuth
274.879° WNW
Elevation
-69.797°
Doppler factor
1
Orbital elements
Apogee altitude
1,220.768 km
Perigee altitude
1,216.924 km
Semi-major axis
7,596.983 km
Eccentricity
0.000253
Inclination
87.8798°
RAAN
116.9658°
Arg. of periapsis
87.2178°
True anomaly
272.89485°
Mean anomaly
272.9238°
Eccentric anomaly
272.90932°
Mean motion
3.27779 °/min
BSTAR
-0.0018038
Orbital period
109.83 mins
Loading maneuver chart data...
Loading SW <> Apogee altitude chart data...
Loading historical data...
Loading historical data...
Loading historical data...
Loading historical data...
Loading historical data...
Loading historical data...
Loading historical data...

ONEWEB-0049 Visibility forecast

Observer location: undefined°, undefined°

Span
Click to sort rows by Start time (UTC) header in descending order
Start Az.
Max El. time (UTC)
Max El. Az.
Max El.
End time (UTC)
End Az.
5 mins2025-05-09 09:29:28.381Z51.589° ENE2025-05-09 09:31:28.381Z68.358° E12.582°2025-05-09 09:34:28.381Z93.3° ESE
13 mins2025-05-09 11:16:28.381Z2.032° NNE2025-05-09 11:22:28.381Z50.377° ENE44.423°2025-05-09 11:29:28.381Z176.67° S
7 mins2025-05-09 13:08:28.381Z317.762° NNW2025-05-09 13:11:28.381Z291.181° WNW16.568°2025-05-09 13:15:28.381Z255.331° W
6 mins2025-05-09 21:50:28.381Z94.031° ESE2025-05-09 21:53:28.381Z67.58° E14.498°2025-05-09 21:56:28.381Z42.419° NE
12 mins2025-05-09 23:36:28.381Z178.508° S2025-05-09 23:41:28.381Z178.214° S44.58°2025-05-09 23:48:28.381Z0.653° NNE
6 mins2025-05-10 01:30:28.381Z266.5° W2025-05-10 01:32:28.381Z284.044° WNW14.491°2025-05-10 01:36:28.381Z318.401° NNW
|